Wind_Speed
43 48 43 38 42 38 41 34 38 39 44 44 43 40 38 38 40 45 45 49 49 50 50 45 52 53 56 56 54 52 54 55 56 57 52 48 49 52 51 54 54 51 54 56 58 58 58 57 57
55 46 52 46 48 46 42 41 45 46 48 48 49 42 39 41 45 47 49 53 53 54 54 48 52 57 61 59 55 54 56 58 57 55 49 46 49 53 54 56 56 57 56 61 62 64 64 64 64
56 55 49 50 50 49 56 48 43 47 51 51 54 47 42 44 51 52 53 55 58 57 56 51 55 62 66 64 62 59 57 55 51 49 49 51 56 61 60 60 59 59 61 63 66 70 73 72 72
48 50 55 54 57 55 55 55 59 60 57 55 58 54 46 47 51 54 57 60 58 55 53 53 57 65 67 67 66 59 53 49 49 50 54 58 63 62 59 59 60 61 60 61 66 76 76 78 77
52 52 53 56 58 59 53 57 56 60 59 54 55 58 50 42 53 56 59 60 58 56 57 59 56 65 67 67 66 62 55 51 50 55 58 64 66 64 64 64 64 64 64 65 64 65 68 77 83
57 55 50 52 58 57 58 57 57 58 56 54 54 53 55 52 51 53 54 59 62 59 58 57 55 61 65 65 67 63 57 56 55 61 65 69 65 66 66 69 70 69 69 65 59 59 59 62 72
63 58 57 53 55 56 56 58 58 54 54 54 54 58 61 56 47 50 54 59 64 68 63 57 58 57 64 65 66 63 59 60 63 67 70 68 69 68 71 68 62 60 58 56 53 49 50 54 59
66 62 59 60 60 59 57 50 59 62 61 58 58 57 58 60 56 56 60 66 67 68 63 62 61 61 62 65 67 66 61 61 68 70 70 72 68 72 64 58 56 52 52 51 50 50 50 50 58
69 65 58 59 58 55 60 56 61 54 56 56 61 61 61 65 66 64 66 69 70 67 66 64 63 64 66 68 67 64 65 68 71 72 74 71 71 61 57 60 53 53 52 52 50 50 50 49 52
72 68 63 67 67 64 65 64 60 60 60 63 67 68 66 65 67 65 63 63 64 64 66 64 65 67 66 70 69 65 64 70 73 76 73 71 64 62 58 53 50 48 48 49 49 51 50 45 48
78 67 71 70 67 65 64 64 62 61 62 67 68 69 69 68 62 54 61 61 60 63 64 63 66 67 68 70 71 69 67 70 74 76 72 67 61 56 54 50 45 44 43 44 45 47 46 46 46
77 71 73 75 74 67 67 65 65 69 69 72 69 72 62 56 57 55 53 60 62 67 63 69 65 69 72 71 73 70 72 73 78 72 71 63 58 55 50 44 42 41 40 39 40 40 43 47 50
73 73 78 78 77 76 77 74 71 72 77 73 67 68 63 60 62 58 63 67 66 69 71 71 69 71 74 73 73 72 73 77 74 69 65 61 55 51 48 45 43 40 38 38 39 40 42 43 46
78 78 75 78 77 77 76 72 73 72 73 74 70 65 63 62 57 60 63 63 69 72 73 69 70 74 74 74 73 73 74 78 72 65 58 55 52 48 43 41 37 35 29 30 30 33 38 40 43
86 83 79 76 79 79 79 72 73 71 74 71 74 70 65 60 59 66 66 69 73 73 70 72 71 72 72 73 73 73 74 75 66 59 55 52 48 45 41 36 32 29 26 30 32 32 36 38 41
86 83 77 78 82 79 87 69 73 77 78 72 70 68 62 60 67 73 72 75 73 69 69 67 70 70 71 70 72 73 73 72 64 57 52 51 46 43 36 32 26 27 27 31 31 35 38 40 42
82 84 80 82 84 83 84 70 78 80 77 67 65 66 67 66 73 79 76 76 68 68 65 69 69 69 69 69 72 72 70 66 59 54 50 45 43 38 31 30 29 29 32 36 37 38 39 39 42
80 84 89 89 84 87 85 75 76 80 77 74 68 69 68 67 72 71 69 70 67 68 69 67 67 68 67 70 72 67 67 61 55 51 47 43 38 33 32 35 36 31 33 36 40 36 36 38 40
87 92 87 80 84 91 84 75 74 82 81 78 72 69 71 66 66 66 70 67 67 66 66 66 65 64 66 69 64 65 62 56 49 46 44 38 33 31 34 38 32 30 33 38 35 32 36 36 33
90 88 80 83 85 89 83 78 76 79 79 79 74 72 71 65 66 70 70 64 65 66 64 63 63 63 65 67 60 62 54 49 45 44 40 35 34 35 38 38 32 30 33 32 37 35 30 28 27
95 90 84 86 88 90 87 87 77 73 76 75 72 68 66 62 67 70 66 63 64 63 63 60 60 61 63 57 60 55 51 43 42 40 37 37 37 39 40 36 33 31 29 31 29 27 25 22 20
90 85 83 84 86 87 91 82 73 74 75 70 67 60 62 62 66 66 60 60 63 61 59 57 58 59 56 55 55 49 44 41 41 37 36 36 40 37 36 35 33 33 32 28 24 21 19 17 16
79 80 85 84 84 84 79 83 66 71 70 71 62 64 58 61 61 58 55 57 57 56 53 54 56 55 50 53 47 45 39 38 36 33 35 36 33 34 33 34 33 30 28 21 15 14 12 11 12
76 83 83 79 81 74 62 73 55 61 67 67 61 60 59 58 53 52 53 53 51 48 50 52 50 45 49 45 44 40 36 33 31 32 35 30 29 33 33 31 27 24 17 12 10 8 6 8 8
84 78 78 73 66 54 51 56 49 53 52 52 55 56 56 54 49 46 49 46 42 45 49 46 40 45 42 41 41 33 31 28 28 30 29 31 33 30 28 21 18 14 9 7 4 3 3 4 7
83 77 71 63 58 52 58 48 41 48 45 44 47 49 48 46 40 40 38 36 41 45 39 35 40 39 38 40 32 27 24 23 25 27 30 29 29 24 19 13 11 8 5 2 4 8 7 5 6
83 85 58 67 59 54 46 38 42 47 44 44 44 39 42 37 31 28 34 36 37 32 31 35 36 35 37 32 22 21 19 21 21 25 25 28 24 18 10 10 7 5 2 4 9 7 7 5 9
94 73 80 70 61 47 46 40 44 44 40 40 35 29 23 21 22 30 32 29 26 27 31 33 30 33 32 22 18 15 15 19 18 20 20 20 17 11 7 5 4 5 6 10 7 7 8 10 15
90 88 80 72 65 58 49 40 42 33 31 33 28 19 19 23 26 25 25 22 23 27 31 26 29 32 23 15 13 7 12 15 16 16 14 15 14 12 6 4 7 8 9 9 10 7 13 23 16
91 86 80 73 62 49 37 41 43 28 30 25 19 23 24 22 24 24 23 21 25 29 25 24 29 26 14 12 4 3 11 12 12 12 11 13 14 12 5 4 5 6 10 8 9 12 20 25 37
Wind_Direction
261 259 245 242 248 256 255 254 264 267 274 273 290 294 300 303 303 301 302 306 303 303 303 302 303 308 309 307 306 303 304 301 304 302 297 287 281 279 276 275 274 272 267 262 260 252 244 241 244
250 256 258 248 252 257 257 255 263 270 271 275 287 290 293 299 299 299 297 300 303 302 304 299 303 304 308 309 305 303 302 302 302 299 295 292 286 282 280 279 273 270 263 256 252 251 245 238 237
250 251 256 258 258 256 262 265 265 268 274 282 283 290 291 294 298 299 300 298 298 298 299 300 303 302 304 308 309 303 303 303 302 300 295 294 293 289 284 278 274 269 265 257 251 247 247 243 237
252 251 255 257 259 265 264 260 263 267 270 279 280 280 281 293 292 294 295 297 300 298 297 299 301 302 304 307 307 304 304 306 304 302 300 298 297 293 287 282 277 271 267 261 257 251 249 246 243
252 256 252 256 258 261 259 266 265 267 272 275 276 283 286 288 290 290 292 297 300 298 299 300 300 301 304 308 304 303 306 307 305 303 303 302 301 295 291 285 284 280 276 273 267 264 255 250 246
256 253 252 255 257 261 259 264 267 267 269 274 279 283 285 283 288 292 298 299 297 298 300 298 298 301 305 307 303 306 307 309 307 305 306 306 301 295 290 288 286 282 279 275 270 263 260 256 250
257 253 252 255 257 262 262 262 263 266 267 270 274 280 282 284 287 292 300 302 301 297 297 296 298 302 306 304 304 307 308 309 309 308 308 304 302 297 294 294 287 281 279 275 268 259 255 253 252
254 252 252 254 262 266 266 264 264 266 268 269 274 274 278 284 283 287 293 296 298 299 294 297 300 302 304 303 304 306 309 311 308 310 308 305 299 298 294 291 287 280 275 272 264 262 257 253 249
251 250 252 259 258 264 264 263 267 268 269 272 276 277 282 286 286 289 294 292 293 296 292 297 301 302 302 301 303 307 310 311 309 312 310 301 303 300 294 289 283 277 274 271 270 266 259 255 250
250 251 252 255 259 261 264 266 273 273 273 282 280 279 280 280 283 291 291 293 292 292 292 297 302 300 300 301 304 307 310 311 311 312 305 306 304 300 296 291 287 283 277 273 269 265 264 256 248
249 248 252 252 258 261 264 268 269 277 281 278 283 282 280 280 286 282 290 291 290 290 294 298 301 300 302 303 306 309 312 310 313 308 307 306 303 298 298 295 290 284 279 272 266 263 261 259 251
250 250 254 254 258 258 262 266 272 276 282 281 278 280 283 283 287 286 287 286 285 291 294 297 299 302 302 303 308 309 311 313 311 308 309 306 302 303 301 297 293 285 279 274 268 263 258 254 252
253 254 255 255 256 259 265 271 272 278 278 274 275 277 278 281 288 287 287 294 291 294 296 300 301 303 302 304 308 310 312 312 311 309 306 305 305 304 300 295 291 288 283 277 271 264 258 253 252
255 252 255 259 262 263 265 268 271 276 274 272 277 276 279 280 284 287 288 293 292 292 295 298 299 300 303 305 307 311 311 312 310 307 308 308 306 303 301 299 297 294 288 285 280 272 264 257 251
252 254 255 261 262 264 267 267 270 268 268 270 277 276 278 279 287 285 288 292 293 291 296 295 296 299 302 305 309 310 312 310 308 309 310 310 306 305 305 305 303 296 281 278 276 271 269 266 259
252 255 261 263 261 263 262 260 265 266 267 272 274 280 282 290 288 284 289 291 293 293 293 293 298 300 303 306 308 310 310 309 306 309 312 308 307 309 307 306 299 289 286 280 275 274 269 267 263
255 257 256 256 260 259 261 260 266 266 271 276 280 280 282 290 283 284 288 288 287 289 291 294 297 300 303 306 308 310 309 307 309 312 309 306 307 307 299 297 290 287 281 278 275 271 267 265 267
247 249 254 254 253 258 262 267 264 266 273 279 281 278 279 282 280 283 283 282 285 288 290 294 296 300 304 306 309 309 308 307 311 311 309 308 306 300 294 295 298 288 280 273 275 272 269 273 271
247 252 252 251 251 257 259 257 260 264 268 272 273 273 275 275 278 280 281 281 285 288 290 293 297 300 303 305 309 309 306 311 312 309 313 312 306 298 298 305 301 286 281 281 277 275 277 275 270
251 253 253 253 254 258 260 262 268 267 267 268 270 270 272 273 273 277 278 280 282 285 289 293 296 298 303 307 307 307 309 313 309 314 315 312 306 303 304 307 298 287 283 276 280 282 278 274 269
252 255 249 250 252 259 268 270 268 261 264 265 266 266 268 270 270 272 275 279 281 284 288 292 295 300 303 305 307 306 313 309 312 312 309 307 308 308 308 304 303 300 286 293 286 282 279 276 270
249 247 247 251 256 262 264 268 263 261 266 263 262 265 271 268 268 271 275 278 279 283 287 292 296 299 303 306 304 312 309 309 313 312 308 312 314 314 309 302 302 300 297 293 284 279 277 269 261
248 247 249 252 258 261 261 267 259 263 261 261 266 270 268 266 267 271 273 273 278 282 288 292 295 299 304 303 306 311 306 313 314 311 313 321 313 310 301 302 304 302 298 291 283 277 270 261 253
244 248 252 253 257 268 260 266 265 261 258 266 271 268 265 263 267 268 270 275 278 282 287 292 295 301 302 302 310 307 311 315 310 316 322 318 310 302 303 306 307 302 293 296 285 273 266 249 222
245 248 254 259 265 265 257 271 260 258 275 275 266 263 262 262 261 263 267 273 277 281 288 291 298 302 300 305 309 307 312 312 316 325 321 314 310 308 296 313 309 298 302 285 278 246 189 196 172
244 248 252 257 255 251 260 270 258 265 274 272 268 262 261 257 257 262 268 269 278 285 287 295 300 297 300 311 304 308 314 316 321 324 317 307 309 306 313 325 322 324 297 223 164 140 143 124 132
244 247 249 245 248 254 256 254 257 274 270 265 265 264 253 251 256 260 259 273 280 283 293 298 297 299 309 305 304 311 311 321 318 325 316 308 308 319 324 335 349 1 218 149 134 137 136 148 147
240 239 241 247 249 249 251 251 259 277 267 264 263 254 246 242 241 248 262 272 277 290 298 297 299 303 308 298 307 305 319 324 322 323 314 314 320 345 356 349 40 90 130 136 139 148 138 121 128
237 240 243 241 244 247 247 251 265 268 267 262 252 225 213 228 242 251 259 269 287 291 300 295 304 308 301 308 303 305 331 329 323 322 329 327 341 352 355 32 102 135 140 128 127 133 128 128 119
233 234 234 236 238 237 238 245 250 253 258 249 223 195 219 243 246 260 267 273 293 299 291 304 311 310 303 324 256 332 335 338 339 349 340 346 353 10 28 77 127 134 130 130 134 128 122 125 128
Height
10934 10935 10935 10936 10939 10939 10938 10938 10935 10937 10937 10937 10937 10936 10934 10934 10932 10931 10929 10927 10926 10922 10920 10918 10914 10910 10905 10899 10895 10890 10884 10879 10874 10869 10865 10861 10858 10856 10853 10850 10847 10845 10843 10842 10841 10842 10845 10847 10849
10925 10926 10928 10928 10932 10932 10931 10932 10930 10931 10931 10931 10932 10930 10930 10929 10925 10922 10923 10919 10917 10914 10911 10909 10905 10900 10895 10890 10885 10880 10873 10868 10863 10858 10853 10849 10847 10843 10840 10836 10834 10831 10829 10828 10826 10827 10829 10832 10835
10917 10919 10920 10921 10923 10925 10923 10925 10924 10926 10926 10925 10924 10923 10924 10923 10918 10914 10914 10912 10909 10907 10904 10900 10897 10890 10885 10880 10873 10867 10862 10858 10852 10847 10842 10839 10835 10830 10825 10821 10819 10816 10815 10813 10811 10809 10810 10814 10819
10910 10911 10912 10912 10914 10915 10917 10919 10919 10920 10920 10919 10916 10915 10916 10915 10912 10909 10906 10903 10901 10898 10895 10891 10887 10880 10874 10868 10859 10853 10849 10846 10841 10835 10830 10826 10821 10814 10808 10805 10801 10798 10797 10798 10798 10797 10795 10798 10803
10900 10901 10904 10905 10906 10908 10912 10907 10914 10914 10913 10914 10910 10905 10906 10912 10904 10901 10898 10894 10891 10890 10886 10881 10878 10871 10864 10857 10847 10841 10836 10832 10828 10823 10818 10812 10805 10798 10791 10787 10783 10779 10778 10777 10779 10779 10779 10783 10785
10889 10891 10895 10896 10898 10899 10904 10902 10903 10905 10906 10904 10904 10899 10897 10901 10897 10895 10890 10885 10882 10880 10877 10872 10867 10862 10855 10846 10837 10831 10825 10819 10814 10809 10802 10795 10788 10782 10776 10770 10763 10758 10755 10755 10756 10759 10761 10761 10764
10878 10881 10886 10889 10889 10890 10894 10897 10894 10896 10895 10896 10893 10889 10886 10890 10892 10885 10880 10876 10870 10867 10865 10862 10856 10853 10846 10836 10827 10820 10815 10808 10802 10795 10786 10778 10771 10765 10758 10751 10743 10739 10737 10737 10738 10741 10746 10747 10747
10868 10871 10878 10880 10879 10881 10881 10887 10886 10888 10888 10889 10884 10879 10878 10878 10882 10878 10872 10866 10862 10856 10854 10851 10848 10843 10835 10827 10819 10810 10804 10797 10790 10783 10773 10765 10757 10750 10741 10735 10730 10726 10724 10723 10725 10727 10730 10733 10734
10854 10864 10870 10868 10868 10868 10869 10877 10873 10881 10880 10879 10873 10873 10873 10872 10871 10870 10865 10857 10851 10848 10843 10840 10839 10832 10823 10816 10809 10802 10793 10786 10778 10767 10759 10752 10743 10734 10728 10720 10719 10714 10712 10709 10709 10711 10714 10717 10719
10845 10854 10859 10854 10857 10859 10860 10864 10864 10870 10873 10866 10864 10864 10867 10868 10864 10860 10855 10849 10842 10838 10833 10833 10828 10821 10813 10804 10798 10790 10782 10775 10764 10754 10747 10738 10726 10719 10714 10708 10703 10700 10697 10696 10694 10695 10697 10702 10705
10834 10846 10842 10847 10847 10849 10853 10855 10856 10857 10860 10857 10852 10852 10858 10857 10857 10851 10846 10838 10834 10827 10827 10825 10817 10808 10801 10793 10787 10778 10771 10763 10753 10743 10733 10724 10715 10708 10700 10695 10690 10687 10685 10683 10683 10683 10685 10687 10691
10821 10833 10829 10834 10837 10840 10843 10846 10849 10847 10847 10845 10840 10841 10848 10845 10844 10841 10837 10831 10826 10821 10820 10813 10808 10796 10787 10782 10776 10767 10760 10750 10743 10732 10719 10712 10705 10695 10689 10684 10679 10676 10674 10671 10671 10672 10673 10676 10678
10815 10817 10815 10820 10824 10829 10832 10837 10839 10836 10833 10831 10830 10830 10836 10836 10834 10828 10823 10820 10818 10814 10805 10801 10796 10786 10778 10771 10766 10755 10746 10739 10729 10719 10709 10699 10693 10685 10679 10672 10669 10666 10662 10661 10660 10660 10662 10664 10665
10796 10798 10808 10809 10815 10817 10819 10826 10825 10828 10817 10818 10819 10822 10825 10826 10823 10817 10812 10811 10804 10802 10796 10790 10784 10777 10768 10760 10754 10745 10736 10727 10716 10707 10698 10689 10682 10675 10669 10662 10658 10655 10653 10651 10650 10650 10650 10652 10654
10779 10785 10795 10804 10801 10806 10799 10821 10820 10812 10802 10809 10808 10812 10816 10816 10812 10802 10802 10799 10795 10791 10785 10778 10774 10766 10758 10752 10743 10735 10726 10714 10707 10696 10687 10679 10672 10666 10659 10653 10650 10647 10647 10645 10644 10643 10641 10641 10643
10766 10769 10787 10788 10781 10791 10784 10820 10801 10792 10792 10801 10802 10802 10804 10804 10800 10791 10793 10787 10785 10781 10773 10767 10763 10755 10748 10742 10734 10725 10716 10704 10695 10687 10679 10669 10663 10656 10651 10646 10643 10641 10640 10638 10637 10635 10634 10632 10632
10763 10769 10766 10765 10767 10768 10766 10800 10787 10776 10781 10792 10794 10794 10793 10794 10787 10781 10783 10776 10774 10768 10763 10757 10751 10745 10739 10733 10725 10716 10705 10695 10685 10676 10668 10661 10654 10648 10644 10641 10638 10636 10632 10629 10627 10625 10623 10622 10622
10741 10738 10744 10751 10753 10751 10759 10783 10775 10768 10771 10780 10783 10783 10782 10784 10775 10771 10771 10767 10764 10758 10752 10748 10741 10736 10730 10722 10715 10705 10696 10686 10676 10667 10658 10652 10645 10641 10637 10634 10631 10628 10624 10620 10617 10615 10613 10611 10611
10718 10720 10736 10740 10739 10733 10750 10764 10766 10761 10762 10766 10768 10769 10769 10769 10765 10761 10757 10756 10753 10748 10743 10738 10733 10728 10722 10714 10706 10696 10687 10676 10668 10658 10650 10643 10638 10634 10631 10626 10622 10618 10614 10611 10607 10605 10603 10601 10601
10702 10711 10725 10723 10726 10721 10737 10750 10759 10753 10751 10753 10756 10756 10755 10757 10753 10748 10745 10746 10743 10737 10734 10729 10724 10719 10713 10705 10697 10688 10678 10669 10659 10651 10643 10636 10633 10629 10624 10618 10615 10611 10607 10603 10598 10595 10594 10593 10593
10687 10697 10702 10705 10704 10714 10727 10733 10741 10739 10737 10738 10740 10742 10743 10743 10738 10735 10735 10734 10731 10728 10725 10721 10716 10711 10704 10697 10687 10680 10670 10662 10652 10645 10638 10632 10628 10621 10616 10609 10605 10602 10599 10595 10591 10589 10588 10588 10588
10672 10677 10676 10688 10696 10710 10705 10721 10726 10722 10725 10723 10724 10732 10731 10729 10726 10726 10725 10723 10719 10719 10716 10712 10708 10703 10696 10687 10680 10671 10663 10655 10646 10639 10634 10628 10619 10613 10608 10604 10599 10595 10591 10589 10586 10585 10584 10585 10585
10664 10645 10667 10673 10686 10691 10700 10698 10721 10710 10710 10701 10717 10717 10719 10715 10715 10716 10714 10711 10712 10710 10707 10705 10700 10695 10688 10680 10672 10664 10657 10648 10640 10635 10628 10621 10614 10608 10603 10598 10594 10589 10586 10585 10583 10582 10582 10583 10582
10637 10638 10649 10662 10670 10685 10688 10686 10711 10687 10691 10701 10706 10707 10705 10705 10706 10704 10704 10703 10703 10701 10700 10697 10692 10686 10680 10673 10666 10658 10649 10642 10636 10630 10623 10617 10611 10605 10599 10593 10589 10584 10583 10582 10581 10581 10581 10581 10582
10616 10630 10639 10652 10665 10683 10673 10679 10687 10674 10692 10692 10693 10692 10693 10695 10694 10694 10695 10696 10695 10694 10692 10688 10685 10679 10672 10666 10658 10651 10644 10638 10632 10626 10621 10614 10607 10601 10595 10590 10586 10583 10582 10581 10581 10580 10580 10582 10583
10605 10619 10634 10649 10655 10662 10663 10674 10671 10672 10679 10679 10681 10683 10685 10685 10685 10686 10688 10688 10689 10687 10684 10682 10678 10672 10666 10658 10652 10645 10639 10635 10629 10625 10618 10611 10603 10597 10592 10589 10586 10583 10582 10582 10582 10583 10583 10585 10586
10603 10600 10643 10626 10642 10652 10659 10664 10660 10667 10667 10667 10671 10675 10674 10676 10678 10680 10682 10682 10681 10680 10679 10675 10671 10665 10658 10652 10646 10640 10636 10632 10627 10623 10615 10608 10601 10595 10591 10589 10587 10584 10584 10584 10585 10586 10587 10588 10590
10573 10613 10600 10622 10637 10649 10651 10655 10655 10657 10659 10660 10663 10666 10667 10669 10673 10676 10676 10675 10675 10675 10672 10669 10664 10658 10652 10647 10641 10637 10635 10630 10626 10621 10614 10608 10601 10595 10592 10590 10588 10588 10587 10587 10588 10589 10591 10592 10596
10570 10581 10602 10613 10626 10635 10643 10647 10650 10654 10654 10654 10656 10660 10662 10667 10669 10670 10670 10670 10670 10669 10666 10663 10658 10651 10646 10640 10636 10636 10632 10629 10625 10620 10614 10607 10601 10596 10594 10591 10591 10591 10592 10591 10591 10592 10594 10598 10602
10556 10571 10586 10601 10619 10628 10636 10638 10637 10645 10646 10648 10652 10655 10660 10664 10665 10665 10665 10665 10665 10663 10660 10657 10652 10646 10640 10635 10635 10634 10632 10628 10625 10620 10614 10609 10603 10598 10595 10594 10594 10594 10595 10595 10595 10596 10599 10603 10607